Regional Weather Roundup
Issued by NWS Portland, ME

Home | Current Version | Previous Version | Text Only | Print | Product List | Glossary On
Versions: 1 2 3 4 5 6 7 8 9 10 11 12 13 14 15 16 17 18 19 20 21 22 23 24 25 26 27 28 29 30 31 32 33 34 35 36 37 38 39 40 41 42 43 44 45 46 47 48 49 50
000
ASUS41 KGYX 300710
RWRGYX
WEATHER ROUNDUP FOR MAINE AND NEW HAMPSHIRE
NATIONAL WEATHER SERVICE GRAY ME
300 AM EDT SUN AUG 30 2015

MEZ002-005-006-010-012-015-018-020-021-024-026-027-029-300800-
MAINE

CITY           SKY/WX    TMP DP  RH WIND       PRES   REMARKS
PORTLAND       CLOUDY    65  61  87 S3        30.03F
SANFORD        CLOUDY    63  55  77 CALM      30.05S
BAR HARBOR     CLOUDY    63  63 100 CALM      30.04S
WISCASSET      CLOUDY    61  59  93 CALM      30.05S
ROCKLAND       CLOUDY    59  57  94 CALM      30.02S
FRYEBURG       CLOUDY    61  60  97 CALM      30.04F
LEWISTONAUBURN CLOUDY    61 N/A N/A CALM      30.04F
AUGUSTA        CLOUDY    64  60  87 CALM      30.04S
WATERVILLE     CLOUDY    61  57  88 SW5       30.01S
BANGOR         CLOUDY    62  58  86 SE3       30.03S
GREENVILLE       N/A     61  56  83 CALM      30.02F
MILLINOCKET    CLOUDY    62  59  90 CALM      30.02F
HOULTON        CLOUDY    61  57  87 SW5       29.99S
PRESQUE ISLE   CLOUDY    63  55  77 CALM      29.98S
FRENCHVILLE    CLOUDY    61  56  83 SW5       29.96S
CARIBOU        LGT RAIN  61  57  87 SW7       29.97S
$$

NHZ002-005-008-009-011-012-014-300800-
NEW HAMPSHIRE

CITY           SKY/WX    TMP DP  RH WIND       PRES   REMARKS
PORTSMOUTH     MOCLDY    64  59  84 SW6       30.04S
ROCHESTER      MOCLDY    65  59  81 CALM      30.04F
NASHUA         PTCLDY    61  58  90 CALM      30.06F
MANCHESTER     MOCLDY    65  57  75 CALM      30.04F
CONCORD        MOCLDY    63  59  87 CALM      30.06F
LACONIA        CLOUDY    66  57  72 SW5       30.05S
PLYMOUTH       FAIR      60  58  96 CALM      30.06S
BERLIN         CLOUDY    58  56  93 CALM      30.07S
WHITEFIELD     CLOUDY    59  57  93 CALM      30.07S
JAFFREY        PTCLDY    60  59  96 S3        30.09F
KEENE          PTCLDY    59  54  82 CALM      30.08S
LEBANON        CLOUDY    60  58  92 CALM      30.06S
MT WASHINGTON  FOG       46  46 100 W32         N/A  VSB 0
$$

VTZ005-007-008-300800-
VERMONT

CITY           SKY/WX    TMP DP  RH WIND       PRES   REMARKS
ST JOHNSBURY     N/A     62  59  90 MISG      30.05S
MONTPELIER     CLOUDY    62  59  90 CALM      30.11F
BURLINGTON     CLOUDY    66  60  81 CALM      30.05S
$$

MAZ007-012-024-CTZ003-RIZ002-NYZ038-NYZ072-300800-
SOUTHERN NEW ENGLAND AND NY

CITY           SKY/WX    TMP DP  RH WIND       PRES   REMARKS
BOSTON         MOCLDY    71  60  68 SW15      30.06F
WORCESTER      MOCLDY    63  58  83 W9        30.10F
NANTUCKET      MOCLDY    67  64  90 SW6       30.10F
PROVIDENCE     PTCLDY    68  63  84 W8        30.09F
HARTFORD       MOCLDY    67  61  81 SW3       30.07F
ALBANY         PTCLDY    64  58  80 S3        30.07F
NEW YORK CITY  MOCLDY    74  60  61 SW8       30.08F
$$

ANZ081-ANZ082-ANZ150-NHZ014-MEZ023>029-300800-
COASTAL MARINE OBSERVATIONS

STATION/POSITION TIME  TEMP    WIND        PRES    WAVE
                       AIR SEA DIR/SP/G            HT/PER
                 (UTC) (F)     (DEG/KT/KT) (MB)    (FT/S)
MOUNT DESERT ROC 0700   60     260/  7/  7 1017.2F
MATINICUS ROCK   0700   64     270/ 13/ 14 1016.9S
ISLE OF SHOALS   0700   68     230/ 10/ 11 1016.9F
JEFFREYS LEDGE   0603      69                N/A     3/11
CASHES LEDGE BUO 0650   70                 1017.2R   3/10
GEORGES BANK BUO 0650   71 69  270/  4/  4 1019.5F   3/10
$$

.............KEY..............
   WCI - WIND CHILL
   TC  - TEMPERATURE IN CELSIUS
   VSB - VISIBILITY IN MILES
   HX  - HEAT INDEX
   FAIR- INDICATES FEW OR NO CLOUDS BELOW 12,000 FT, WITH NO
         SIGNIFICANT WEATHER AND/OR OBSTRUCTIONS TO VISIBILITY.





USA.gov is the U.S. government's official web portal to all federal, state and local government web resources and services.